Year,Month,Day,Hour,Minute,Value (Times are PST for temperature in C)
2010,10,16,00,00,2.00
2010,10,16,00,01,2.00
2010,10,16,00,02,2.00
2010,10,16,00,03,1.90
2010,10,16,00,04,1.90
2010,10,16,00,05,1.90
2010,10,16,00,06,1.90
2010,10,16,00,07,1.90
2010,10,16,00,08,1.90
2010,10,16,00,09,1.90
2010,10,16,00,10,1.90
2010,10,16,00,11,1.90
2010,10,16,00,12,1.80
2010,10,16,00,13,1.80
2010,10,16,00,14,1.80
2010,10,16,00,15,1.80
2010,10,16,00,16,1.80
2010,10,16,00,17,1.80
2010,10,16,00,18,1.80
2010,10,16,00,19,1.80
2010,10,16,00,20,1.80
2010,10,16,00,21,1.80
2010,10,16,00,22,1.80
2010,10,16,00,23,1.80
2010,10,16,00,24,1.80
2010,10,16,00,25,1.80
2010,10,16,00,26,1.80
2010,10,16,00,27,1.80
2010,10,16,00,28,1.80
2010,10,16,00,29,1.80
2010,10,16,00,30,1.80
2010,10,16,00,31,1.80
2010,10,16,00,32,1.80
2010,10,16,00,33,1.80
2010,10,16,00,34,1.80
2010,10,16,00,35,1.80
2010,10,16,00,36,1.80
2010,10,16,00,37,1.80
2010,10,16,00,38,1.80
2010,10,16,00,39,1.80
2010,10,16,00,40,1.80
2010,10,16,00,41,1.80
2010,10,16,00,42,1.70
2010,10,16,00,43,1.70
2010,10,16,00,44,1.70
2010,10,16,00,45,1.70
2010,10,16,00,46,1.70
2010,10,16,00,47,1.70
2010,10,16,00,48,1.70
2010,10,16,00,49,1.70
2010,10,16,00,50,1.70
2010,10,16,00,51,1.70
2010,10,16,00,52,1.70
2010,10,16,00,53,1.70
2010,10,16,00,54,1.70
2010,10,16,00,55,1.70
2010,10,16,00,56,1.70
2010,10,16,00,57,1.70
2010,10,16,00,58,1.70
2010,10,16,00,59,1.70
2010,10,16,01,00,1.70
2010,10,16,01,01,1.70
2010,10,16,01,02,1.70
2010,10,16,01,03,1.70
2010,10,16,01,04,1.70
2010,10,16,01,05,1.70
2010,10,16,01,06,1.70
2010,10,16,01,07,1.70
2010,10,16,01,08,1.80
2010,10,16,01,09,1.80
2010,10,16,01,10,1.80
2010,10,16,01,11,1.80
2010,10,16,01,12,1.80
2010,10,16,01,13,1.80
2010,10,16,01,14,1.80
2010,10,16,01,15,1.90
2010,10,16,01,16,1.90
2010,10,16,01,17,1.90
2010,10,16,01,18,2.00
2010,10,16,01,19,2.00
2010,10,16,01,20,2.10
2010,10,16,01,21,2.10
2010,10,16,01,22,2.10
2010,10,16,01,23,2.10
2010,10,16,01,24,2.20
2010,10,16,01,25,2.20
2010,10,16,01,26,2.20
2010,10,16,01,27,2.20
2010,10,16,01,28,2.30
2010,10,16,01,29,2.30
2010,10,16,01,30,2.30
2010,10,16,01,31,2.30
2010,10,16,01,32,2.30
2010,10,16,01,33,2.30
2010,10,16,01,34,2.30
2010,10,16,01,35,2.30
2010,10,16,01,36,2.30
2010,10,16,01,37,2.30
2010,10,16,01,38,2.30
2010,10,16,01,39,2.30
2010,10,16,01,40,2.30
2010,10,16,01,41,2.30
2010,10,16,01,42,2.40
2010,10,16,01,43,2.40
2010,10,16,01,44,2.50
2010,10,16,01,45,2.70
2010,10,16,01,46,2.70
2010,10,16,01,47,2.80
2010,10,16,01,48,2.80
2010,10,16,01,49,2.90
2010,10,16,01,50,2.90
2010,10,16,01,51,2.90
2010,10,16,01,52,2.90
2010,10,16,01,53,2.90
2010,10,16,01,54,2.90
2010,10,16,01,55,2.90
2010,10,16,01,56,2.90
2010,10,16,01,57,2.90
2010,10,16,01,58,2.90
2010,10,16,01,59,2.80
2010,10,16,02,00,2.90
2010,10,16,02,01,2.80
2010,10,16,02,02,2.80
2010,10,16,02,03,2.80
2010,10,16,02,04,2.70
2010,10,16,02,05,2.70
2010,10,16,02,06,2.70
2010,10,16,02,07,2.70
2010,10,16,02,08,2.60
2010,10,16,02,09,2.60
2010,10,16,02,10,2.60
2010,10,16,02,11,2.60
2010,10,16,02,12,2.60
2010,10,16,02,13,2.60
2010,10,16,02,14,2.60
2010,10,16,02,15,2.70
2010,10,16,02,16,2.80
2010,10,16,02,17,2.80
2010,10,16,02,18,2.80
2010,10,16,02,19,2.80
2010,10,16,02,20,2.80
2010,10,16,02,21,2.80
2010,10,16,02,22,2.80
2010,10,16,02,23,2.80
2010,10,16,02,24,2.80
2010,10,16,02,25,2.80
2010,10,16,02,26,2.80
2010,10,16,02,27,2.80
2010,10,16,02,28,2.80
2010,10,16,02,29,2.70
2010,10,16,02,30,2.70
2010,10,16,02,31,2.70
2010,10,16,02,32,2.70
2010,10,16,02,33,2.70
2010,10,16,02,34,2.70
2010,10,16,02,35,2.70
2010,10,16,02,36,2.70
2010,10,16,02,37,2.60
2010,10,16,02,38,2.60
2010,10,16,02,39,2.60
2010,10,16,02,40,2.60
2010,10,16,02,41,2.50
2010,10,16,02,42,2.50
2010,10,16,02,43,2.50
2010,10,16,02,44,2.50
2010,10,16,02,45,2.50
2010,10,16,02,46,2.40
2010,10,16,02,47,2.40
2010,10,16,02,48,2.40
2010,10,16,02,49,2.40
2010,10,16,02,50,2.40
2010,10,16,02,51,2.30
2010,10,16,02,52,2.30
2010,10,16,02,53,2.30
2010,10,16,02,54,2.30
2010,10,16,02,55,2.30
2010,10,16,02,56,2.30
2010,10,16,02,57,2.20
2010,10,16,02,58,2.20
2010,10,16,02,59,2.20
2010,10,16,03,00,2.20
2010,10,16,03,01,2.20
2010,10,16,03,02,2.20
2010,10,16,03,03,2.10
2010,10,16,03,04,2.10
2010,10,16,03,05,2.10
2010,10,16,03,06,2.10
2010,10,16,03,07,2.10
2010,10,16,03,08,2.10
2010,10,16,03,09,2.00
2010,10,16,03,10,2.00
2010,10,16,03,11,2.00
2010,10,16,03,12,2.00
2010,10,16,03,13,1.90
2010,10,16,03,14,1.90
2010,10,16,03,15,1.90
2010,10,16,03,16,1.90
2010,10,16,03,17,1.90
2010,10,16,03,18,1.80
2010,10,16,03,19,1.80
2010,10,16,03,20,1.80
2010,10,16,03,21,1.80
2010,10,16,03,22,1.80
2010,10,16,03,23,1.80
2010,10,16,03,24,1.70
2010,10,16,03,25,1.70
2010,10,16,03,26,1.70
2010,10,16,03,27,1.70
2010,10,16,03,28,1.60
2010,10,16,03,29,1.60
2010,10,16,03,30,1.60
2010,10,16,03,31,1.60
2010,10,16,03,32,1.60
2010,10,16,03,33,1.50
2010,10,16,03,34,1.50
2010,10,16,03,35,1.50
2010,10,16,03,36,1.50
2010,10,16,03,37,1.50
2010,10,16,03,38,1.50
2010,10,16,03,39,1.40
2010,10,16,03,40,1.40
2010,10,16,03,41,1.40
2010,10,16,03,42,1.50
2010,10,16,03,43,1.40
2010,10,16,03,44,1.40
2010,10,16,03,45,1.40
2010,10,16,03,46,1.40
2010,10,16,03,47,1.50
2010,10,16,03,48,1.50
2010,10,16,03,49,1.50
2010,10,16,03,50,1.50
2010,10,16,03,51,1.50
2010,10,16,03,52,1.60
2010,10,16,03,53,1.60
2010,10,16,03,54,1.50
2010,10,16,03,55,1.50
2010,10,16,03,56,1.50
2010,10,16,03,57,1.50
2010,10,16,03,58,1.50
2010,10,16,03,59,1.50
2010,10,16,04,00,1.50
2010,10,16,04,01,1.60
2010,10,16,04,02,1.60
2010,10,16,04,03,1.70
2010,10,16,04,04,1.70
2010,10,16,04,05,1.70
2010,10,16,04,06,1.80
2010,10,16,04,07,1.80
2010,10,16,04,08,1.80
2010,10,16,04,09,1.90
2010,10,16,04,10,1.90
2010,10,16,04,11,2.00
2010,10,16,04,12,2.20
2010,10,16,04,13,2.30
2010,10,16,04,14,2.40
2010,10,16,04,15,2.40
2010,10,16,04,16,2.40
2010,10,16,04,17,2.40
2010,10,16,04,18,2.40
2010,10,16,04,19,2.40
2010,10,16,04,20,2.40
2010,10,16,04,21,2.30
2010,10,16,04,22,2.30
2010,10,16,04,23,2.30
2010,10,16,04,24,2.30
2010,10,16,04,25,2.30
2010,10,16,04,26,2.30
2010,10,16,04,27,2.20
2010,10,16,04,28,2.20
2010,10,16,04,29,2.20
2010,10,16,04,30,2.20
2010,10,16,04,31,2.20
2010,10,16,04,32,2.20
2010,10,16,04,33,2.20
2010,10,16,04,34,2.10
2010,10,16,04,35,2.10
2010,10,16,04,36,2.10
2010,10,16,04,37,2.10
2010,10,16,04,38,2.10
2010,10,16,04,39,2.20
2010,10,16,04,40,2.20
2010,10,16,04,41,2.20
2010,10,16,04,42,2.20
2010,10,16,04,43,2.30
2010,10,16,04,44,2.30
2010,10,16,04,45,2.30
2010,10,16,04,46,2.30
2010,10,16,04,47,2.30
2010,10,16,04,48,2.40
2010,10,16,04,49,2.40
2010,10,16,04,50,2.50
2010,10,16,04,51,2.50
2010,10,16,04,52,2.60
2010,10,16,04,53,2.60
2010,10,16,04,54,2.70
2010,10,16,04,55,2.80
2010,10,16,04,56,2.90
2010,10,16,04,57,3.00
2010,10,16,04,58,3.00
2010,10,16,04,59,3.00
2010,10,16,05,00,3.10
2010,10,16,05,01,3.10
2010,10,16,05,02,3.20
2010,10,16,05,03,3.20
2010,10,16,05,04,3.30
2010,10,16,05,05,3.30
2010,10,16,05,06,3.40
2010,10,16,05,07,3.40
2010,10,16,05,08,3.40
2010,10,16,05,09,3.50
2010,10,16,05,10,3.50
2010,10,16,05,11,3.60
2010,10,16,05,12,3.70
2010,10,16,05,13,3.70
2010,10,16,05,14,3.70
2010,10,16,05,15,3.70
2010,10,16,05,16,3.70
2010,10,16,05,17,3.70
2010,10,16,05,18,3.70
2010,10,16,05,19,3.70
2010,10,16,05,20,3.70
2010,10,16,05,21,3.70
2010,10,16,05,22,3.70
2010,10,16,05,23,3.70
2010,10,16,05,24,3.70
2010,10,16,05,25,3.70
2010,10,16,05,26,3.70
2010,10,16,05,27,3.70
2010,10,16,05,28,3.70
2010,10,16,05,29,3.70
2010,10,16,05,30,3.70
2010,10,16,05,31,3.60
2010,10,16,05,32,3.50
2010,10,16,05,33,3.50
2010,10,16,05,34,3.40
2010,10,16,05,35,3.40
2010,10,16,05,36,3.30
2010,10,16,05,37,3.30
2010,10,16,05,38,3.20
2010,10,16,05,39,3.20
2010,10,16,05,40,3.10
2010,10,16,05,41,3.10
2010,10,16,05,42,3.10
2010,10,16,05,43,3.00
2010,10,16,05,44,3.00
2010,10,16,05,45,2.90
2010,10,16,05,46,2.90
2010,10,16,05,47,2.80
2010,10,16,05,48,2.80
2010,10,16,05,49,2.80
2010,10,16,05,50,2.80
2010,10,16,05,51,2.70
2010,10,16,05,52,2.70
2010,10,16,05,53,2.70
2010,10,16,05,54,2.70
2010,10,16,05,55,2.70
2010,10,16,05,56,2.60
2010,10,16,05,57,2.60
2010,10,16,05,58,2.60
2010,10,16,05,59,2.60
2010,10,16,06,00,2.50
2010,10,16,06,01,2.50
2010,10,16,06,02,2.50
2010,10,16,06,03,2.50
2010,10,16,06,04,2.40
2010,10,16,06,05,2.40
2010,10,16,06,06,2.40
2010,10,16,06,07,2.30
2010,10,16,06,08,2.30
2010,10,16,06,09,2.30
2010,10,16,06,10,2.30
2010,10,16,06,11,2.30
2010,10,16,06,12,2.30
2010,10,16,06,13,2.20
2010,10,16,06,14,2.20
2010,10,16,06,15,2.20
2010,10,16,06,16,2.20
2010,10,16,06,17,2.10
2010,10,16,06,18,2.10
2010,10,16,06,19,2.10
2010,10,16,06,20,2.00
2010,10,16,06,21,2.00
2010,10,16,06,22,1.90
2010,10,16,06,23,1.90
2010,10,16,06,24,1.90
2010,10,16,06,25,1.80
2010,10,16,06,26,1.80
2010,10,16,06,27,1.80
2010,10,16,06,28,1.80
2010,10,16,06,29,1.70
2010,10,16,06,30,1.70
2010,10,16,06,31,1.70
2010,10,16,06,32,1.70
2010,10,16,06,33,1.60
2010,10,16,06,34,1.60
2010,10,16,06,35,1.60
2010,10,16,06,36,1.50
2010,10,16,06,37,1.50
2010,10,16,06,38,1.40
2010,10,16,06,39,1.40
2010,10,16,06,40,1.30
2010,10,16,06,41,1.30
2010,10,16,06,42,1.30
2010,10,16,06,43,1.30
2010,10,16,06,44,1.30
2010,10,16,06,45,1.30
2010,10,16,06,46,1.30
2010,10,16,06,47,1.30
2010,10,16,06,48,1.20
2010,10,16,06,49,1.20
2010,10,16,06,50,1.20
2010,10,16,06,51,1.20
2010,10,16,06,52,1.10
2010,10,16,06,53,1.10
2010,10,16,06,54,1.10
2010,10,16,06,55,1.10
2010,10,16,06,56,1.10
2010,10,16,06,57,1.00
2010,10,16,06,58,1.00
2010,10,16,06,59,1.00
2010,10,16,07,00,1.00
2010,10,16,07,01,0.90
2010,10,16,07,02,0.90
2010,10,16,07,03,0.90
2010,10,16,07,04,0.90
2010,10,16,07,05,0.90
2010,10,16,07,06,0.90
2010,10,16,07,07,0.90
2010,10,16,07,08,0.80
2010,10,16,07,09,0.80
2010,10,16,07,10,0.80
2010,10,16,07,11,0.80
2010,10,16,07,12,0.80
2010,10,16,07,13,0.80
2010,10,16,07,14,0.80
2010,10,16,07,15,0.80
2010,10,16,07,16,0.80
2010,10,16,07,17,0.80
2010,10,16,07,18,0.80
2010,10,16,07,19,0.80
2010,10,16,07,20,0.80
2010,10,16,07,21,0.70
2010,10,16,07,22,0.70
2010,10,16,07,23,0.70
2010,10,16,07,24,0.70
2010,10,16,07,25,0.70
2010,10,16,07,26,0.70
2010,10,16,07,27,0.70
2010,10,16,07,28,0.70
2010,10,16,07,29,0.70
2010,10,16,07,30,0.60
2010,10,16,07,31,0.60
2010,10,16,07,32,0.60
2010,10,16,07,33,0.60
2010,10,16,07,34,0.60
2010,10,16,07,35,0.60
2010,10,16,07,36,0.60
2010,10,16,07,37,0.50
2010,10,16,07,38,0.50
2010,10,16,07,39,0.50
2010,10,16,07,40,0.50
2010,10,16,07,41,0.50
2010,10,16,07,42,0.40
2010,10,16,07,43,0.40
2010,10,16,07,44,0.40
2010,10,16,07,45,0.40
2010,10,16,07,46,0.40
2010,10,16,07,47,0.40
2010,10,16,07,48,0.40
2010,10,16,07,49,0.40
2010,10,16,07,50,0.30
2010,10,16,07,51,0.30
2010,10,16,07,52,0.30
2010,10,16,07,53,0.30
2010,10,16,07,54,0.30
2010,10,16,07,55,0.30
2010,10,16,07,56,0.30
2010,10,16,07,57,0.30
2010,10,16,07,58,0.30
2010,10,16,07,59,0.30
2010,10,16,08,00,0.30
2010,10,16,08,01,0.30
2010,10,16,08,02,0.30
2010,10,16,08,03,0.30
2010,10,16,08,04,0.30
2010,10,16,08,05,0.30
2010,10,16,08,06,0.30
2010,10,16,08,07,0.30
2010,10,16,08,08,0.30
2010,10,16,08,09,0.30
2010,10,16,08,10,0.30
2010,10,16,08,11,0.30
2010,10,16,08,12,0.30
2010,10,16,08,13,0.30
2010,10,16,08,14,0.30
2010,10,16,08,15,0.30
2010,10,16,08,16,0.30
2010,10,16,08,17,0.30
2010,10,16,08,18,0.30
2010,10,16,08,19,0.30
2010,10,16,08,20,0.30
2010,10,16,08,21,0.30
2010,10,16,08,22,0.30
2010,10,16,08,23,0.30
2010,10,16,08,24,0.30
2010,10,16,08,25,0.30
2010,10,16,08,26,0.30
2010,10,16,08,27,0.30
2010,10,16,08,28,0.30
2010,10,16,08,29,0.30
2010,10,16,08,30,0.30
2010,10,16,08,31,0.30
2010,10,16,08,32,0.30
2010,10,16,08,33,0.30
2010,10,16,08,34,0.40
2010,10,16,08,35,0.40
2010,10,16,08,36,0.40
2010,10,16,08,37,0.40
2010,10,16,08,38,0.40
2010,10,16,08,39,0.40
2010,10,16,08,40,0.40
2010,10,16,08,41,0.40
2010,10,16,08,42,0.50
2010,10,16,08,43,0.50
2010,10,16,08,44,0.50
2010,10,16,08,45,0.50
2010,10,16,08,46,0.60
2010,10,16,08,47,0.60
2010,10,16,08,48,0.60
2010,10,16,08,49,0.60
2010,10,16,08,50,0.60
2010,10,16,08,51,0.70
2010,10,16,08,52,0.70
2010,10,16,08,53,0.70
2010,10,16,08,54,0.70
2010,10,16,08,55,0.70
2010,10,16,08,56,0.70
2010,10,16,08,57,0.80
2010,10,16,08,58,0.80
2010,10,16,08,59,0.80
2010,10,16,09,00,0.90
2010,10,16,09,01,0.90
2010,10,16,09,02,1.00
2010,10,16,09,03,1.10
2010,10,16,09,04,1.10
2010,10,16,09,05,1.20
2010,10,16,09,06,1.20
2010,10,16,09,07,1.20
2010,10,16,09,08,1.30
2010,10,16,09,09,1.30
2010,10,16,09,10,1.30
2010,10,16,09,11,1.30
2010,10,16,09,12,1.30
2010,10,16,09,13,1.40
2010,10,16,09,14,1.50
2010,10,16,09,15,1.50
2010,10,16,09,16,1.60
2010,10,16,09,17,1.60
2010,10,16,09,18,1.70
2010,10,16,09,19,1.70
2010,10,16,09,20,1.80
2010,10,16,09,21,1.80
2010,10,16,09,22,1.90
2010,10,16,09,23,2.00
2010,10,16,09,24,2.00
2010,10,16,09,25,2.10
2010,10,16,09,26,2.20
2010,10,16,09,27,2.20
2010,10,16,09,28,2.30
2010,10,16,09,29,2.40
2010,10,16,09,30,2.40
2010,10,16,09,31,2.50
2010,10,16,09,32,2.60
2010,10,16,09,33,2.60
2010,10,16,09,34,2.70
2010,10,16,09,35,2.70
2010,10,16,09,36,2.80
2010,10,16,09,37,2.80
2010,10,16,09,38,2.90
2010,10,16,09,39,3.00
2010,10,16,09,40,3.00
2010,10,16,09,41,3.10
2010,10,16,09,42,3.20
2010,10,16,09,43,3.20
2010,10,16,09,44,3.30
2010,10,16,09,45,3.30
2010,10,16,09,46,3.40
2010,10,16,09,47,3.50
2010,10,16,09,48,3.50
2010,10,16,09,49,3.60
2010,10,16,09,50,3.60
2010,10,16,09,51,3.70
2010,10,16,09,52,3.70
2010,10,16,09,53,3.80
2010,10,16,09,54,3.80
2010,10,16,09,55,3.80
2010,10,16,09,56,3.90
2010,10,16,09,57,4.00
2010,10,16,09,58,4.00
2010,10,16,09,59,4.10
2010,10,16,10,00,4.10
2010,10,16,10,01,4.20
2010,10,16,10,02,4.20
2010,10,16,10,03,4.30
2010,10,16,10,04,4.30
2010,10,16,10,05,4.40
2010,10,16,10,06,4.50
2010,10,16,10,07,4.50
2010,10,16,10,08,4.60
2010,10,16,10,09,4.70
2010,10,16,10,10,4.70
2010,10,16,10,11,4.80
2010,10,16,10,12,4.90
2010,10,16,10,13,4.90
2010,10,16,10,14,5.00
2010,10,16,10,15,5.00
2010,10,16,10,16,5.10
2010,10,16,10,17,5.10
2010,10,16,10,18,5.20
2010,10,16,10,19,5.20
2010,10,16,10,20,5.30
2010,10,16,10,21,5.30
2010,10,16,10,22,5.40
2010,10,16,10,23,5.50
2010,10,16,10,24,5.50
2010,10,16,10,25,5.60
2010,10,16,10,26,5.70
2010,10,16,10,27,5.70
2010,10,16,10,28,5.80
2010,10,16,10,29,5.90
2010,10,16,10,30,6.10
2010,10,16,10,31,6.30
2010,10,16,10,32,6.40
2010,10,16,10,33,6.50
2010,10,16,10,34,6.50
2010,10,16,10,35,6.60
2010,10,16,10,36,6.60
2010,10,16,10,37,6.70
2010,10,16,10,38,6.70
2010,10,16,10,39,6.80
2010,10,16,10,40,6.80
2010,10,16,10,41,6.90
2010,10,16,10,42,7.00
2010,10,16,10,43,7.00
2010,10,16,10,44,7.10
2010,10,16,10,45,7.20
2010,10,16,10,46,7.20
2010,10,16,10,47,7.30
2010,10,16,10,48,7.30
2010,10,16,10,49,7.40
2010,10,16,10,50,7.40
2010,10,16,10,51,7.50
2010,10,16,10,52,7.60
2010,10,16,10,53,7.60
2010,10,16,10,54,7.70
2010,10,16,10,55,7.80
2010,10,16,10,56,7.80
2010,10,16,10,57,7.80
2010,10,16,10,58,7.90
2010,10,16,10,59,7.90
2010,10,16,11,00,8.00
2010,10,16,11,01,8.00
2010,10,16,11,02,8.00
2010,10,16,11,03,8.00
2010,10,16,11,04,8.10
2010,10,16,11,05,8.10
2010,10,16,11,06,8.10
2010,10,16,11,07,8.10
2010,10,16,11,08,8.10
2010,10,16,11,09,8.20
2010,10,16,11,10,8.20
2010,10,16,11,11,8.20
2010,10,16,11,12,8.20
2010,10,16,11,13,8.20
2010,10,16,11,14,8.30
2010,10,16,11,15,8.30
2010,10,16,11,16,8.30
2010,10,16,11,17,8.30
2010,10,16,11,18,8.30
2010,10,16,11,19,8.30
2010,10,16,11,20,8.30
2010,10,16,11,21,8.40
2010,10,16,11,22,8.40
2010,10,16,11,23,8.40
2010,10,16,11,24,8.40
2010,10,16,11,25,8.50
2010,10,16,11,26,8.50
2010,10,16,11,27,8.60
2010,10,16,11,28,8.60
2010,10,16,11,29,8.60
2010,10,16,11,30,8.70
2010,10,16,11,31,8.70
2010,10,16,11,32,8.80
2010,10,16,11,33,8.80
2010,10,16,11,34,8.80
2010,10,16,11,35,8.90
2010,10,16,11,36,8.90
2010,10,16,11,37,8.90
2010,10,16,11,38,8.90
2010,10,16,11,39,9.00
2010,10,16,11,40,9.00
2010,10,16,11,41,9.10
2010,10,16,11,42,9.10
2010,10,16,11,43,9.10
2010,10,16,11,44,9.20
2010,10,16,11,45,9.20
2010,10,16,11,46,9.20
2010,10,16,11,47,9.30
2010,10,16,11,48,9.30
2010,10,16,11,49,9.30
2010,10,16,11,50,9.40
2010,10,16,11,51,9.40
2010,10,16,11,52,9.40
2010,10,16,11,53,9.40
2010,10,16,11,54,9.50
2010,10,16,11,55,9.50
2010,10,16,11,56,9.50
2010,10,16,11,57,9.50
2010,10,16,11,58,9.50
2010,10,16,11,59,9.60
2010,10,16,12,00,9.60
2010,10,16,12,01,9.60
2010,10,16,12,02,9.60
2010,10,16,12,03,9.70
2010,10,16,12,04,9.70
2010,10,16,12,05,9.80
2010,10,16,12,06,9.80
2010,10,16,12,07,9.90
2010,10,16,12,08,9.90
2010,10,16,12,09,9.90
2010,10,16,12,10,9.90
2010,10,16,12,11,9.90
2010,10,16,12,12,9.90
2010,10,16,12,13,9.90
2010,10,16,12,14,9.80
2010,10,16,12,15,9.80
2010,10,16,12,16,9.80
2010,10,16,12,17,9.80
2010,10,16,12,18,9.80
2010,10,16,12,19,9.80
2010,10,16,12,20,9.90
2010,10,16,12,21,9.90
2010,10,16,12,22,10.00
2010,10,16,12,23,10.00
2010,10,16,12,24,10.10
2010,10,16,12,25,10.10
2010,10,16,12,26,10.10
2010,10,16,12,27,10.20
2010,10,16,12,28,10.20
2010,10,16,12,29,10.20
2010,10,16,12,30,10.30
2010,10,16,12,31,10.30
2010,10,16,12,32,10.30
2010,10,16,12,33,10.40
2010,10,16,12,34,10.40
2010,10,16,12,35,10.40
2010,10,16,12,36,10.40
2010,10,16,12,37,10.40
2010,10,16,12,38,10.40
2010,10,16,12,39,10.40
2010,10,16,12,40,10.40
2010,10,16,12,41,10.50
2010,10,16,12,42,10.50
2010,10,16,12,43,10.50
2010,10,16,12,44,10.60
2010,10,16,12,45,10.60
2010,10,16,12,46,10.60
2010,10,16,12,47,10.60
2010,10,16,12,48,10.60
2010,10,16,12,49,10.60
2010,10,16,12,50,10.60
2010,10,16,12,51,10.60
2010,10,16,12,52,10.60
2010,10,16,12,53,10.60
2010,10,16,12,54,10.70
2010,10,16,12,55,10.70
2010,10,16,12,56,10.70
2010,10,16,12,57,10.70
2010,10,16,12,58,10.70
2010,10,16,12,59,10.80
2010,10,16,13,00,10.80
2010,10,16,13,01,10.80
2010,10,16,13,02,10.80
2010,10,16,13,03,10.80
2010,10,16,13,04,10.80
2010,10,16,13,05,10.80
2010,10,16,13,06,10.80
2010,10,16,13,07,10.80
2010,10,16,13,08,10.80
2010,10,16,13,09,10.80
2010,10,16,13,10,10.70
2010,10,16,13,11,10.70
2010,10,16,13,12,10.80
2010,10,16,13,13,10.80
2010,10,16,13,14,10.80
2010,10,16,13,15,10.80
2010,10,16,13,16,10.80
2010,10,16,13,17,10.80
2010,10,16,13,18,10.80
2010,10,16,13,19,10.90
2010,10,16,13,20,10.90
2010,10,16,13,21,11.00
2010,10,16,13,22,11.00
2010,10,16,13,23,10.90
2010,10,16,13,24,10.90
2010,10,16,13,25,10.90
2010,10,16,13,26,10.80
2010,10,16,13,27,10.80
2010,10,16,13,28,10.90
2010,10,16,13,29,10.90
2010,10,16,13,30,10.90
2010,10,16,13,31,10.90
2010,10,16,13,32,10.90
2010,10,16,13,33,10.90
2010,10,16,13,34,10.80
2010,10,16,13,35,10.90
2010,10,16,13,36,10.90
2010,10,16,13,37,10.90
2010,10,16,13,38,10.80
2010,10,16,13,39,10.80
2010,10,16,13,40,10.80
2010,10,16,13,41,10.80
2010,10,16,13,42,10.80
2010,10,16,13,43,10.80
2010,10,16,13,44,10.80
2010,10,16,13,45,10.80
2010,10,16,13,46,10.80
2010,10,16,13,47,10.90
2010,10,16,13,48,10.90
2010,10,16,13,49,10.90
2010,10,16,13,50,10.80
2010,10,16,13,51,10.80
2010,10,16,13,52,10.90
2010,10,16,13,53,10.90
2010,10,16,13,54,10.90
2010,10,16,13,55,10.90
2010,10,16,13,56,10.90
2010,10,16,13,57,10.90
2010,10,16,13,58,11.00
2010,10,16,13,59,11.00
2010,10,16,14,00,11.00
2010,10,16,14,01,11.00
2010,10,16,14,02,11.00
2010,10,16,14,03,11.10
2010,10,16,14,04,11.10
2010,10,16,14,05,11.10
2010,10,16,14,06,11.20
2010,10,16,14,07,11.20
2010,10,16,14,08,11.20
2010,10,16,14,09,11.20
2010,10,16,14,10,11.20
2010,10,16,14,11,11.20
2010,10,16,14,12,11.20
2010,10,16,14,13,11.20
2010,10,16,14,14,11.30
2010,10,16,14,15,11.30
2010,10,16,14,16,11.30
2010,10,16,14,17,11.30
2010,10,16,14,18,11.30
2010,10,16,14,19,11.40
2010,10,16,14,20,11.40
2010,10,16,14,21,11.40
2010,10,16,14,22,11.40
2010,10,16,14,23,11.40
2010,10,16,14,24,11.40
2010,10,16,14,25,11.40
2010,10,16,14,26,11.40
2010,10,16,14,27,11.50
2010,10,16,14,28,11.50
2010,10,16,14,29,11.40
2010,10,16,14,30,11.40
2010,10,16,14,31,11.50
2010,10,16,14,32,11.50
2010,10,16,14,33,11.50
2010,10,16,14,34,11.50
2010,10,16,14,35,11.50
2010,10,16,14,36,11.50
2010,10,16,14,37,11.60
2010,10,16,14,38,11.60
2010,10,16,14,39,11.60
2010,10,16,14,40,11.60
2010,10,16,14,41,11.60
2010,10,16,14,42,11.60
2010,10,16,14,43,11.50
2010,10,16,14,44,11.50
2010,10,16,14,45,11.50
2010,10,16,14,46,11.40
2010,10,16,14,47,11.40
2010,10,16,14,48,11.40
2010,10,16,14,49,11.40
2010,10,16,14,50,11.30
2010,10,16,14,51,11.30
2010,10,16,14,52,11.30
2010,10,16,14,53,11.30
2010,10,16,14,54,11.30
2010,10,16,14,55,11.30
2010,10,16,14,56,11.30
2010,10,16,14,57,11.30
2010,10,16,14,58,11.30
2010,10,16,14,59,11.30
2010,10,16,15,00,11.30
2010,10,16,15,01,11.30
2010,10,16,15,02,11.30
2010,10,16,15,03,11.30
2010,10,16,15,04,11.30
2010,10,16,15,05,11.30
2010,10,16,15,06,11.30
2010,10,16,15,07,11.20
2010,10,16,15,08,11.20
2010,10,16,15,09,11.20
2010,10,16,15,10,11.20
2010,10,16,15,11,11.20
2010,10,16,15,12,11.20
2010,10,16,15,13,11.20
2010,10,16,15,14,11.20
2010,10,16,15,15,11.20
2010,10,16,15,16,11.20
2010,10,16,15,17,11.20
2010,10,16,15,18,11.20
2010,10,16,15,19,11.20
2010,10,16,15,20,11.30
2010,10,16,15,21,11.30
2010,10,16,15,22,11.30
2010,10,16,15,23,11.30
2010,10,16,15,24,11.40
2010,10,16,15,25,11.40
2010,10,16,15,26,11.40
2010,10,16,15,27,11.40
2010,10,16,15,28,11.40
2010,10,16,15,29,11.40
2010,10,16,15,30,11.40
2010,10,16,15,31,11.40
2010,10,16,15,32,11.40
2010,10,16,15,33,11.40
2010,10,16,15,34,11.40
2010,10,16,15,35,11.40
2010,10,16,15,36,11.40
2010,10,16,15,37,11.40
2010,10,16,15,38,11.40
2010,10,16,15,39,11.40
2010,10,16,15,40,11.50
2010,10,16,15,41,11.50
2010,10,16,15,42,11.60
2010,10,16,15,43,11.50
2010,10,16,15,44,11.50
2010,10,16,15,45,11.50
2010,10,16,15,46,11.50
2010,10,16,15,47,11.50
2010,10,16,15,48,11.50
2010,10,16,15,49,11.50
2010,10,16,15,50,11.40
2010,10,16,15,51,11.40
2010,10,16,15,52,11.40
2010,10,16,15,53,11.40
2010,10,16,15,54,11.30
2010,10,16,15,55,11.30
2010,10,16,15,56,11.20
2010,10,16,15,57,11.20
2010,10,16,15,58,11.20
2010,10,16,15,59,11.10
2010,10,16,16,00,11.00
2010,10,16,16,01,11.00
2010,10,16,16,02,11.00
2010,10,16,16,03,10.90
2010,10,16,16,04,10.90
2010,10,16,16,05,10.90
2010,10,16,16,06,10.90
2010,10,16,16,07,10.90
2010,10,16,16,08,10.90
2010,10,16,16,09,10.80
2010,10,16,16,10,10.80
2010,10,16,16,11,10.80
2010,10,16,16,12,10.80
2010,10,16,16,13,10.80
2010,10,16,16,14,10.80
2010,10,16,16,15,10.80
2010,10,16,16,16,10.80
2010,10,16,16,17,10.80
2010,10,16,16,18,10.80
2010,10,16,16,19,10.70
2010,10,16,16,20,10.70
2010,10,16,16,21,10.70
2010,10,16,16,22,10.70
2010,10,16,16,23,10.70
2010,10,16,16,24,10.70
2010,10,16,16,25,10.70
2010,10,16,16,26,10.70
2010,10,16,16,27,10.70
2010,10,16,16,28,10.70
2010,10,16,16,29,10.70
2010,10,16,16,30,10.70
2010,10,16,16,31,10.70
2010,10,16,16,32,10.70
2010,10,16,16,33,10.60
2010,10,16,16,34,10.60
2010,10,16,16,35,10.60
2010,10,16,16,36,10.60
2010,10,16,16,37,10.60
2010,10,16,16,38,10.60
2010,10,16,16,39,10.60
2010,10,16,16,40,10.60
2010,10,16,16,41,10.60
2010,10,16,16,42,10.60
2010,10,16,16,43,10.60
2010,10,16,16,44,10.60
2010,10,16,16,45,10.50
2010,10,16,16,46,10.50
2010,10,16,16,47,10.50
2010,10,16,16,48,10.50
2010,10,16,16,49,10.50
2010,10,16,16,50,10.40
2010,10,16,16,51,10.40
2010,10,16,16,52,10.40
2010,10,16,16,53,10.40
2010,10,16,16,54,10.40
2010,10,16,16,55,10.40
2010,10,16,16,56,10.40
2010,10,16,16,57,10.40
2010,10,16,16,58,10.40
2010,10,16,16,59,10.30
2010,10,16,17,00,10.30
2010,10,16,17,01,10.30
2010,10,16,17,02,10.30
2010,10,16,17,03,10.20
2010,10,16,17,04,10.20
2010,10,16,17,05,10.20
2010,10,16,17,06,10.20
2010,10,16,17,07,10.20
2010,10,16,17,08,10.20
2010,10,16,17,09,10.20
2010,10,16,17,10,10.10
2010,10,16,17,11,10.10
2010,10,16,17,12,10.10
2010,10,16,17,13,10.10
2010,10,16,17,14,10.10
2010,10,16,17,15,10.10
2010,10,16,17,16,10.00
2010,10,16,17,17,10.00
2010,10,16,17,18,9.90
2010,10,16,17,19,9.90
2010,10,16,17,20,9.90
2010,10,16,17,21,9.80
2010,10,16,17,22,9.80
2010,10,16,17,23,9.70
2010,10,16,17,24,9.70
2010,10,16,17,25,9.60
2010,10,16,17,26,9.60
2010,10,16,17,27,9.50
2010,10,16,17,28,9.50
2010,10,16,17,29,9.40
2010,10,16,17,30,9.30
2010,10,16,17,31,9.30
2010,10,16,17,32,9.30
2010,10,16,17,33,9.20
2010,10,16,17,34,9.20
2010,10,16,17,35,9.10
2010,10,16,17,36,9.10
2010,10,16,17,37,9.10
2010,10,16,17,38,9.00
2010,10,16,17,39,9.00
2010,10,16,17,40,8.90
2010,10,16,17,41,8.90
2010,10,16,17,42,8.80
2010,10,16,17,43,8.80
2010,10,16,17,44,8.70
2010,10,16,17,45,8.70
2010,10,16,17,46,8.70
2010,10,16,17,47,8.60
2010,10,16,17,48,8.60
2010,10,16,17,49,8.50
2010,10,16,17,50,8.50
2010,10,16,17,51,8.50
2010,10,16,17,52,8.40
2010,10,16,17,53,8.40